Wind_Speed
15 15 16 15 15 15 15 14 13 13 13 14 14 14 15 15 15 15 13 13 11 16 8 7 12 16 17 21 22 17 14 16 22 15 2 11 14 8 5 11 8 5 9 24 27
14 15 15 15 15 14 14 13 12 13 13 13 13 14 14 15 17 19 16 18 17 12 13 13 13 15 19 20 24 18 14 22 20 13 3 15 11 13 8 13 9 12 18 27 26
13 14 14 13 13 13 13 12 12 12 13 12 13 13 13 14 15 4 8 11 11 14 15 14 12 14 20 20 24 23 20 19 22 12 7 6 13 16 14 11 13 18 23 26 25
12 13 13 13 12 12 12 11 11 12 12 12 11 12 10 8 4 2 6 5 5 10 13 15 18 16 17 18 22 20 23 28 25 8 6 15 9 16 15 2 22 20 23 24 23
12 12 13 13 12 12 11 11 11 11 11 11 10 10 9 7 13 6 8 8 8 11 15 17 18 17 16 17 18 19 19 21 26 17 9 14 15 13 15 6 17 22 23 22 21
12 12 12 12 11 10 10 10 10 10 11 10 9 9 6 14 3 2 2 2 6 11 13 15 14 16 16 18 13 17 19 26 15 20 19 14 16 11 13 14 18 22 23 22 21
12 11 12 11 10 9 10 10 11 9 8 8 7 8 11 14 4 3 2 4 7 9 10 12 12 10 15 12 16 18 15 19 15 16 19 13 19 14 21 20 19 20 20 21 20
11 11 11 10 9 9 9 10 10 8 8 9 8 6 9 4 5 8 7 5 7 7 8 10 12 15 19 15 6 15 17 17 21 20 19 10 20 20 21 24 23 21 20 20 20
10 10 10 9 8 7 8 9 10 11 11 7 4 3 5 2 3 5 10 8 7 7 7 7 10 15 14 15 14 14 15 21 20 22 16 17 19 23 29 27 26 25 22 22 22
9 9 9 7 5 5 7 9 9 6 4 4 5 7 7 6 1 3 9 9 7 7 8 11 11 12 13 13 15 14 18 16 17 17 17 19 20 17 23 25 23 24 23 23 24
8 7 7 4 2 2 7 7 5 0 6 9 6 10 9 5 5 5 9 11 9 10 12 15 11 15 18 18 20 21 15 12 15 11 20 19 19 22 24 25 24 24 24 24 25
7 6 5 3 3 1 7 6 8 6 7 1 2 3 4 8 5 7 8 12 12 14 14 6 13 16 16 14 12 16 15 17 16 15 13 14 20 20 22 23 26 25 24 25 25
5 4 3 3 4 3 2 5 7 9 9 8 5 10 4 9 3 7 10 14 14 13 15 14 19 1 7 11 14 16 17 17 18 15 18 16 19 22 23 31 22 23 26 26 27
3 2 2 3 2 2 3 8 11 5 6 10 5 6 4 2 4 4 7 13 10 12 11 13 13 12 10 14 16 17 17 18 18 17 17 19 17 22 23 23 24 26 26 27 29
2 1 4 7 3 5 6 11 6 2 2 5 9 2 3 4 10 7 4 10 14 17 5 17 9 8 12 16 16 17 17 18 17 18 21 25 15 18 19 25 24 26 32 33 33
4 4 3 0 3 6 10 10 4 7 3 5 7 8 4 4 7 9 3 5 16 13 17 17 20 12 14 15 14 12 14 19 17 15 18 21 21 20 19 20 21 21 30 32 33
7 6 4 2 5 10 10 5 7 5 4 6 9 11 4 9 4 11 10 7 10 11 16 3 18 20 14 15 15 19 16 13 17 16 17 21 22 21 22 19 21 12 25 30 36
9 6 9 7 10 9 6 10 4 4 10 10 10 11 3 8 13 8 16 2 5 15 14 16 14 12 21 16 18 21 15 12 23 19 19 20 21 22 21 15 6 9 4 4 18
6 10 8 10 10 7 11 5 7 6 8 10 15 6 9 9 10 16 13 6 8 12 12 14 19 24 15 18 18 18 17 20 18 19 20 22 26 25 10 11 5 2 7 11 19
6 3 9 11 9 11 1 6 5 8 10 11 9 9 13 13 11 12 11 11 10 13 17 17 19 17 25 25 20 22 19 20 15 21 24 20 22 3 7 1 7 4 4 10 17
6 5 9 8 8 6 7 6 5 7 10 8 10 9 10 10 11 11 6 12 12 13 17 15 13 17 18 17 20 19 16 16 17 13 16 14 11 7 3 9 3 4 9 13 16
7 2 11 7 1 3 7 4 3 6 8 5 6 7 8 10 8 7 9 9 11 15 17 11 7 15 18 22 19 18 20 11 6 6 9 12 15 12 11 7 3 7 11 19 19
5 3 8 7 3 6 4 6 6 6 7 6 5 5 7 7 5 6 6 8 11 14 11 11 7 15 14 13 3 18 16 9 9 14 19 17 6 15 24 12 5 1 11 17 23
6 3 5 10 8 4 4 2 2 3 4 4 3 3 7 7 3 6 10 8 15 14 6 6 11 15 15 20 17 18 21 22 6 6 11 13 18 18 19 22 30 10 13 21 23
4 4 4 3 7 5 2 1 1 2 1 3 4 5 7 6 9 4 13 14 14 6 10 5 12 17 21 21 20 23 22 21 15 14 6 16 21 13 16 19 23 21 8 24 26
6 2 4 5 1 2 2 3 4 2 4 2 5 7 6 6 8 13 13 11 6 10 9 9 8 15 19 21 17 18 20 18 14 15 10 12 18 5 14 14 12 22 17 20 25
4 2 6 3 3 6 3 1 1 4 4 4 6 8 7 10 14 14 11 9 8 6 8 8 11 13 16 18 17 7 10 15 15 12 11 9 14 11 10 18 16 5 6 22 21
Wind_Direction
315 314 311 308 304 298 292 291 292 296 299 298 299 300 301 302 296 288 266 248 224 233 214 197 205 217 224 231 229 236 256 251 248 234 72 139 166 151 106 141 162 165 158 154 158
317 315 313 307 300 298 293 291 294 298 296 298 300 302 306 308 300 274 266 248 239 219 203 205 209 210 220 226 224 232 237 244 252 274 225 170 177 158 184 156 154 128 118 148 157
315 314 310 306 302 299 298 297 300 296 296 298 302 306 311 318 302 229 243 229 227 217 209 218 230 219 227 226 219 222 243 247 256 297 315 275 193 151 206 177 166 147 151 155 161
316 316 315 311 307 307 307 303 298 297 299 302 307 307 308 314 316 248 209 232 238 209 209 224 226 229 238 236 233 229 240 254 269 247 220 264 200 158 211 33 153 159 161 161 166
316 318 322 320 316 313 307 303 298 300 303 304 307 303 312 262 256 294 249 263 235 200 210 212 216 226 237 239 243 237 238 246 253 270 233 253 264 192 166 147 144 159 165 167 169
316 324 325 322 315 309 309 302 303 307 305 304 308 300 297 265 300 277 176 241 201 194 210 211 221 229 251 253 253 244 245 254 242 234 243 234 233 169 150 153 151 162 171 171 172
313 323 324 324 316 311 308 308 308 307 305 308 305 305 274 252 260 201 186 235 211 195 217 221 240 239 228 253 245 254 262 238 236 236 243 223 241 196 168 172 164 170 171 172 172
308 319 324 324 316 316 312 310 306 301 299 301 295 307 268 231 225 226 227 219 197 215 229 230 232 247 253 249 248 232 236 250 214 219 224 211 233 195 170 180 173 170 174 178 175
303 311 321 320 320 318 311 310 303 297 296 289 320 239 254 179 230 216 209 210 212 216 226 239 224 239 245 253 240 211 242 222 256 182 218 207 241 238 177 187 180 174 180 183 182
298 306 315 315 319 319 321 312 305 303 313 277 260 251 241 212 0 214 197 215 207 205 210 213 212 225 238 236 245 227 213 250 225 179 204 220 229 151 180 189 190 180 183 189 192
296 295 306 302 299 352 351 346 321 157 231 286 333 288 275 257 257 220 199 198 220 216 231 194 220 225 237 228 263 289 297 285 260 233 196 221 238 178 186 194 188 202 189 195 199
292 292 295 266 221 247 35 340 9 343 302 52 314 319 270 224 240 201 194 211 213 245 216 218 236 257 237 261 257 267 265 268 278 280 265 229 229 245 178 202 196 198 201 198 198
296 290 279 226 210 248 321 338 334 324 257 110 86 39 71 164 257 162 199 216 255 253 262 250 278 28 284 258 250 253 260 266 265 260 235 260 259 251 229 196 210 208 207 207 204
310 286 220 172 152 263 251 327 324 299 258 95 38 46 137 227 180 5 230 260 262 272 297 257 272 274 233 245 257 257 255 248 263 269 258 210 253 238 233 243 194 206 206 207 209
28 131 169 189 224 285 296 323 315 296 211 53 52 53 179 299 333 105 300 258 263 288 232 279 209 235 247 254 252 261 268 268 258 246 261 254 255 263 231 230 219 203 211 207 206
69 84 122 276 291 284 310 308 321 238 84 53 35 348 10 6 13 346 215 228 269 280 275 261 282 287 277 289 289 286 276 262 260 267 254 250 256 255 250 242 254 240 198 212 207
78 83 88 157 305 300 299 276 241 5 339 36 348 330 336 346 329 338 332 345 1 327 291 315 276 245 237 245 267 254 244 256 245 233 245 244 247 254 260 256 242 315 204 204 205
71 59 34 6 320 304 291 254 27 21 12 353 322 310 247 10 334 340 319 268 60 345 324 304 313 340 6 324 327 311 296 271 280 276 275 266 247 246 246 221 131 171 195 246 180
17 37 26 348 353 322 273 14 26 12 351 335 315 345 335 341 356 321 316 348 36 5 346 313 293 317 316 278 300 287 284 291 303 291 288 281 282 278 156 91 27 319 189 219 160
329 270 11 351 332 301 294 51 94 25 333 334 331 335 326 342 330 325 310 64 356 6 346 314 306 306 305 306 290 279 275 284 274 275 268 273 275 344 77 1 39 63 82 125 149
323 248 353 351 322 313 22 63 83 49 359 347 343 327 340 348 323 322 1 64 16 352 332 314 298 304 309 288 305 314 309 313 281 308 290 276 281 33 334 26 41 112 135 153 164
292 299 351 343 170 14 49 25 345 20 13 8 3 332 1 331 328 333 349 4 353 345 323 333 308 292 295 297 280 278 296 7 319 309 277 273 272 85 351 29 258 119 139 154 158
304 13 357 327 336 98 107 92 51 22 30 6 15 353 345 313 310 358 359 350 328 333 352 328 304 308 298 306 320 329 312 286 309 305 279 295 298 356 4 335 277 129 153 151 151
291 242 100 53 57 357 124 53 121 30 63 15 348 322 322 321 278 291 300 335 328 312 13 289 286 294 294 302 309 302 299 292 226 251 293 291 342 343 349 342 330 302 170 152 150
327 68 2 22 68 62 32 304 351 32 98 357 192 354 339 312 319 309 335 329 322 92 289 306 308 301 301 309 299 281 330 313 264 202 243 288 294 333 316 325 301 271 230 147 148
338 318 93 91 18 204 145 36 352 42 308 79 321 335 308 298 346 314 322 321 313 341 330 345 303 307 305 288 324 331 13 343 345 344 304 299 295 330 303 292 347 253 171 148 137
33 33 294 131 174 269 67 40 22 300 155 299 323 311 305 355 315 303 293 293 310 306 343 319 321 313 301 341 317 47 340 331 353 356 349 332 346 23 17 8 8 360 122 118 134
Height
1538 1535 1533 1531 1529 1528 1526 1524 1523 1521 1519 1517 1516 1514 1512 1510 1508 1505 1504 1506 1505 1503 1504 1507 1507 1508 1509 1507 1505 1503 1500 1492 1480 1472 1468 1480 1481 1490 1495 1502 1506 1509 1508 1518 1527
1536 1534 1531 1529 1527 1526 1524 1522 1521 1519 1517 1516 1514 1512 1510 1507 1504 1502 1501 1500 1500 1501 1503 1505 1505 1505 1505 1502 1501 1501 1494 1485 1470 1463 1466 1477 1479 1491 1499 1501 1506 1509 1515 1520 1526
1535 1533 1531 1528 1526 1524 1522 1520 1519 1517 1516 1514 1512 1511 1509 1506 1503 1497 1497 1498 1498 1499 1501 1504 1503 1502 1501 1497 1495 1496 1492 1478 1473 1469 1474 1477 1479 1488 1494 1496 1502 1511 1518 1521 1526
1534 1531 1529 1526 1524 1522 1520 1519 1517 1515 1514 1512 1511 1510 1508 1507 1497 1497 1497 1497 1497 1498 1501 1502 1502 1499 1496 1492 1491 1491 1488 1485 1475 1473 1482 1483 1479 1485 1494 1489 1495 1510 1518 1521 1525
1532 1529 1526 1523 1521 1520 1519 1517 1516 1514 1512 1511 1509 1509 1507 1507 1500 1496 1497 1497 1496 1497 1499 1499 1498 1496 1492 1490 1488 1485 1485 1482 1482 1479 1483 1485 1479 1479 1488 1498 1501 1510 1516 1520 1523
1530 1527 1525 1522 1520 1519 1517 1516 1514 1512 1511 1510 1508 1508 1507 1504 1498 1497 1497 1496 1497 1498 1498 1497 1496 1494 1489 1487 1486 1483 1484 1481 1479 1481 1483 1486 1482 1481 1495 1502 1506 1511 1514 1518 1521
1527 1525 1523 1520 1519 1517 1516 1514 1512 1511 1510 1508 1507 1506 1506 1500 1497 1497 1498 1499 1498 1498 1497 1496 1495 1494 1492 1485 1486 1485 1485 1478 1478 1480 1478 1484 1480 1486 1494 1502 1508 1511 1514 1517 1521
1525 1523 1521 1519 1518 1516 1514 1512 1511 1509 1508 1507 1506 1505 1501 1497 1497 1496 1498 1498 1498 1498 1497 1496 1497 1494 1489 1483 1484 1484 1483 1481 1470 1478 1479 1485 1482 1476 1492 1498 1503 1509 1514 1518 1521
1523 1522 1520 1518 1516 1514 1513 1511 1509 1507 1506 1505 1505 1505 1495 1496 1495 1495 1496 1497 1498 1498 1497 1497 1497 1495 1489 1483 1481 1474 1482 1475 1467 1463 1473 1480 1478 1464 1483 1491 1495 1503 1511 1517 1520
1521 1520 1518 1517 1515 1514 1512 1509 1507 1506 1504 1503 1504 1508 1498 1493 1494 1495 1495 1496 1496 1496 1496 1495 1494 1491 1488 1484 1484 1468 1467 1465 1461 1459 1467 1468 1474 1476 1484 1487 1491 1496 1505 1512 1516
1519 1518 1517 1516 1514 1514 1512 1508 1509 1509 1504 1500 1497 1495 1494 1494 1494 1494 1494 1495 1494 1494 1488 1488 1487 1483 1477 1472 1467 1461 1464 1459 1452 1451 1457 1464 1461 1462 1478 1481 1482 1494 1497 1504 1510
1518 1517 1516 1515 1514 1514 1513 1511 1511 1512 1502 1497 1496 1493 1493 1494 1491 1492 1494 1494 1491 1486 1478 1480 1482 1470 1465 1466 1468 1469 1473 1469 1457 1451 1455 1456 1460 1453 1463 1472 1471 1480 1488 1496 1505
1517 1516 1516 1515 1515 1514 1514 1513 1511 1510 1503 1492 1493 1492 1492 1494 1488 1486 1491 1489 1483 1481 1475 1476 1465 1465 1466 1472 1476 1472 1473 1467 1465 1454 1454 1461 1463 1456 1452 1459 1465 1470 1479 1488 1495
1516 1516 1515 1515 1517 1515 1514 1512 1511 1508 1495 1487 1488 1492 1492 1490 1487 1489 1488 1486 1480 1477 1470 1468 1463 1464 1469 1472 1469 1471 1460 1461 1465 1465 1470 1452 1473 1450 1448 1446 1453 1463 1469 1479 1489
1516 1515 1515 1514 1513 1515 1514 1511 1509 1508 1504 1489 1490 1492 1490 1487 1486 1485 1487 1485 1482 1474 1475 1469 1462 1468 1469 1465 1460 1464 1458 1459 1456 1463 1463 1455 1459 1443 1432 1439 1438 1448 1456 1464 1476
1516 1515 1515 1516 1515 1515 1511 1509 1509 1504 1510 1491 1492 1490 1487 1489 1488 1484 1482 1485 1480 1476 1470 1465 1462 1460 1462 1458 1457 1456 1460 1456 1456 1456 1466 1454 1453 1443 1432 1431 1430 1429 1441 1453 1463
1518 1517 1516 1516 1515 1512 1510 1509 1502 1498 1493 1500 1499 1493 1491 1494 1489 1489 1484 1478 1484 1491 1472 1468 1459 1451 1452 1457 1457 1455 1460 1470 1469 1462 1458 1437 1442 1431 1422 1418 1422 1426 1428 1439 1447
1521 1519 1518 1515 1514 1510 1509 1503 1509 1506 1508 1504 1501 1496 1495 1497 1494 1489 1486 1485 1500 1496 1485 1477 1476 1467 1465 1465 1466 1457 1457 1471 1479 1460 1438 1415 1429 1416 1403 1408 1420 1427 1434 1441 1442
1523 1521 1521 1518 1513 1509 1509 1503 1516 1516 1515 1511 1500 1501 1492 1493 1498 1494 1491 1494 1496 1504 1508 1496 1483 1466 1474 1474 1468 1467 1465 1451 1467 1465 1456 1431 1416 1403 1410 1425 1432 1432 1434 1440 1447
1524 1521 1520 1518 1514 1510 1504 1518 1519 1522 1519 1515 1511 1509 1511 1504 1508 1504 1496 1502 1507 1507 1508 1502 1499 1486 1477 1471 1465 1465 1457 1461 1451 1474 1472 1441 1430 1432 1435 1435 1441 1441 1441 1448 1457
1523 1516 1520 1518 1513 1508 1506 1514 1519 1524 1525 1522 1519 1518 1514 1514 1512 1506 1501 1506 1513 1514 1512 1504 1502 1493 1484 1478 1470 1465 1463 1468 1468 1471 1468 1467 1457 1443 1447 1447 1452 1448 1450 1457 1467
1523 1513 1520 1517 1513 1512 1515 1520 1528 1525 1526 1524 1523 1522 1522 1519 1516 1510 1511 1512 1518 1519 1514 1509 1508 1502 1491 1478 1474 1473 1474 1484 1492 1497 1491 1487 1461 1455 1461 1452 1459 1453 1456 1458 1469
1522 1521 1522 1517 1509 1517 1524 1526 1530 1528 1529 1528 1526 1527 1526 1522 1523 1515 1516 1517 1520 1519 1517 1517 1506 1506 1487 1476 1467 1476 1478 1483 1497 1493 1477 1473 1460 1481 1479 1467 1468 1458 1460 1463 1469
1523 1515 1521 1523 1524 1521 1523 1527 1527 1533 1531 1531 1529 1528 1525 1522 1517 1519 1516 1517 1519 1518 1523 1524 1513 1509 1505 1493 1484 1484 1479 1476 1486 1501 1503 1493 1495 1495 1490 1484 1479 1466 1464 1464 1473
1526 1527 1528 1520 1524 1528 1526 1528 1526 1528 1531 1531 1526 1527 1527 1526 1521 1516 1518 1519 1516 1520 1517 1514 1515 1507 1495 1487 1484 1480 1479 1470 1469 1487 1505 1490 1495 1491 1499 1494 1485 1480 1466 1464 1475
1528 1527 1530 1532 1533 1528 1533 1529 1529 1530 1532 1527 1530 1529 1526 1526 1526 1526 1524 1521 1518 1517 1514 1515 1516 1508 1502 1486 1482 1482 1501 1488 1485 1484 1486 1492 1492 1490 1491 1496 1487 1482 1471 1471 1479
1534 1533 1530 1532 1531 1527 1528 1532 1532 1533 1532 1532 1532 1529 1524 1528 1530 1527 1526 1525 1523 1521 1519 1519 1516 1510 1503 1488 1482 1507 1524 1516 1504 1497 1500 1504 1499 1494 1498 1496 1490 1488 1480 1480 1489